Weather observations for the past three days for
Charlestown
| Date | Time (ast) | Wind (mph) | Vis. (mi.) | Weather | Sky Cond. | Temperature (ºF) | Relative Humidity | Wind Chill (°F) | Heat Index (°F) | Pressure | Precipitation (in) | ||||||
|---|---|---|---|---|---|---|---|---|---|---|---|---|---|---|---|---|---|
| Air | Dwpt | 6 hour | altimeter (in) | sea level (mb) | 1 hr | 3 hr | 6 hr | ||||||||||
| Max. | Min. | ||||||||||||||||
| 03 | 19:00 | E 14 | 0.00 | Partly Cloudy | SCT018 | 80.6 | 0 | 0% | 0 | 0.0 | |||||||
| 03 | 18:00 | E 14 | 0.00 | Partly Cloudy | SCT018 | 82.4 | 0 | 0% | 0 | 0.0 | |||||||
| 03 | 17:00 | E 15 | 0.00 | Partly Cloudy | SCT018 | 82.4 | 0 | 0% | 0 | 0.0 | |||||||
| 03 | 16:00 | E 16 | 0.00 | Mostly Cloudy | BKN019 | 84.2 | 0 | 0% | 0 | 0.0 | |||||||
| 03 | 15:00 | E 17 | 0.00 | Mostly Cloudy | BKN019 | 86 | 0 | 0% | 0 | 0.0 | |||||||
| 03 | 14:00 | E 16 | 0.00 | Mostly Cloudy | BKN020 | 86 | 0 | 0% | 0 | 0.0 | |||||||
| 03 | 13:00 | E 15 | 0.00 | Partly Cloudy | SCT021 | 84.2 | 0 | 0% | 0 | 0.0 | |||||||
| 03 | 12:00 | E 15 | 0.00 | Partly Cloudy | SCT022 | 86 | 0 | 0% | 0 | 0.0 | |||||||
| 03 | 11:00 | E 20 | 0.00 | Partly Cloudy | SCT022 | 86 | 0 | 0% | 0 | 0.0 | |||||||
| 03 | 10:00 | E 20 | 0.00 | Partly Cloudy | SCT022 | 84.2 | 0 | 0% | 0 | 0.0 | |||||||
| 03 | 09:00 | E 18 | 0.00 | Mostly Cloudy | BKN021 | 84.2 | 0 | 0% | 0 | 0.0 | |||||||
| 03 | 08:00 | E 13 | 0.00 | Mostly Cloudy | BKN020 | 82.4 | 0 | 0% | 0 | 0.0 | |||||||
| 03 | 07:00 | E 10 | 0.00 | Partly Cloudy | SCT020 | 80.6 | 0 | 0% | 0 | 0.0 | |||||||
| 02 | 19:00 | E 9 | 0.00 | A Few Clouds | FEW020 | 80.6 | 0 | 0% | 0 | 0.0 | |||||||
| 02 | 18:00 | E 12 | 0.00 | A Few Clouds | FEW021 | 82.4 | 0 | 0% | 0 | 0.0 | |||||||
| 02 | 16:00 | E 13 | 0.00 | A Few Clouds | FEW022 | 84.2 | 0 | 0% | 0 | 0.0 | |||||||
| 02 | 15:00 | E 13 | 0.00 | A Few Clouds | FEW024 | 84.2 | 0 | 0% | 0 | 0.0 | |||||||
| 02 | 14:00 | E 13 | 0.00 | A Few Clouds | FEW023 | 86 | 0 | 0% | 0 | 0.0 | |||||||
| 02 | 13:00 | E 12 | 0.00 | A Few Clouds | FEW022 | 86 | 78.8 | 79% | 99 | 0 | 0.0 | ||||||
| 02 | 12:00 | E 15 | 0.00 | Partly Cloudy | SCT022 | 84.2 | 78.8 | 84% | 96 | 0 | 0.0 | ||||||
| 02 | 11:00 | E 9 | 0.00 | Showers in Vicinity | FEW019TCU | 86 | 78.8 | 79% | 99 | 0 | 0.0 | ||||||
| 02 | 10:00 | E 15 | 0.00 | Partly Cloudy | SCT022 | 84.2 | 78.8 | 84% | 96 | 0 | 0.0 | ||||||
| 02 | 09:00 | E 7 | 0.00 | A Few Clouds | FEW024 | 82.4 | 0 | 0% | 0 | 0.0 | |||||||
| 02 | 08:00 | E 10 | 0.00 | A Few Clouds | FEW024 | 82.4 | 78.8 | 89% | 92 | 0 | 0.0 | ||||||
| 02 | 07:00 | E 9 | 0.00 | A Few Clouds | FEW024 | 80.6 | 77 | 89% | 87 | 0 | 0.0 | ||||||
| 01 | 16:00 | NE 13 | 0.00 | Mostly Cloudy | BKN020 | 82.4 | 0 | 0% | 0 | 0.0 | |||||||
| 01 | 15:00 | E 8 | 0.00 | Mostly Cloudy | BKN022 | 82.4 | 0 | 0% | 0 | 0.0 | |||||||
| 01 | 14:00 | E 9 | 0.00 | Partly Cloudy | SCT020 | 84.2 | 0 | 0% | 0 | 0.0 | |||||||
| 01 | 13:00 | E 12 | 0.00 | A Few Clouds | FEW017 | 84.2 | 80.6 | 89% | 98 | 0 | 0.0 | ||||||
| 01 | 12:00 | E 10 | 0.00 | A Few Clouds | FEW017TCU | 84.2 | 80.6 | 89% | 98 | 0 | 0.0 | ||||||
| 01 | 11:00 | E 10 | 0.00 | A Few Clouds | FEW017TCU | 82.4 | 80.6 | 94% | 94 | 0 | 0.0 | ||||||
| 01 | 10:00 | E 10 | 0.00 | Showers in Vicinity | FEW017TCU | 82.4 | 78.8 | 89% | 92 | 0 | 0.0 | ||||||
| 01 | 09:00 | E 10 | 0.00 | A Few Clouds | FEW018 | 82.4 | 80.6 | 94% | 94 | 0 | 0.0 | ||||||
| 01 | 08:00 | E 10 | 0.00 | A Few Clouds | FEW019 | 82.4 | 80.6 | 94% | 94 | 0 | 0.0 | ||||||
| 01 | 07:00 | E 5 | 0.00 | A Few Clouds | FEW019 | 80.6 | 78.8 | 94% | 88 | 0 | 0.0 | ||||||
| Date | Time (ast) | Wind (mph) | Vis. (mi.) | Weather | Sky Cond. | Air | Dwpt | Max. | Min. | Relative Humidity | Wind Chill (°F) | Heat Index (°F) | altimeter (in) | sea level (mb) | 1 hr | 3 hr | 6 hr |
| 6 hour | |||||||||||||||||
| Temperature (ºF) | Pressure | Precipitation (in) | |||||||||||||||